Location: Beutels
(47.8767°N, 9.8584°E)
Time: 18:48:59
(UTC+00:00)

ISS - Pass Details

Date: 26 January 2026
Orbit: 413 x 429 km, 51.6° (Epoch: 11 February)

Event Time Altitude Azimuth Distance (km) Brightness Sun altitude
Rises 18:33:45 0° 290° (WNW) 2,368 1.2 -23.7°
Reaches altitude 10° 18:35:58 10° 281° (W) 1,504 0.1 -24.1°
Enters shadow 18:38:39 31° 231° (SW) 766 -2.1 -24.5°
